Location: Hylvaty SDH
(49.9612°N, 16.4057°E)
Time: 12:46:45
(UTC+01:00)

A-11 Canister half - Pass Details

Date: 06 October 2020
Orbit: 1526 x 1683 km, 47.3° (Epoch: 28 October)

Event Time Altitude Azimuth Distance (km) Brightness Sun altitude
Rises 02:38:43 0° 284° (WNW) 4,695 - -39.0°
Reaches altitude 10° 02:41:48 10° 280° (W) 3,722 - -38.7°
Maximum altitude 02:50:50 54° 207° (SSW) 1,851 - -37.8°
Exits shadow 02:57:12 22° 141° (SE) 2,956 10.4 -37.1°
Drops below altitude 10° 03:00:08 10° 134° (SE) 3,822 11.0 -36.8°
Sets 03:03:22 0° 130° (SE) 4,828 11.7 -36.4°
